Zurück zum Katalog

STARLINK-32078

AktivKommunikationVLEO
NORAD 60338·PAYLOAD·🇺🇸 United States

Gestartet Aug 2, 2024 von Cape Canaveral Space Force Station

Loading…

Nächste Überflüge (nächste 24 Stunden)

TLE

AktuellSource: CelesTrak SupGP

Epoche: Sep 14, 2026, 22:42 UTC

1 60338C 24136K   26257.94631944  .00045905  00000+0  13564-2 0  2578
2 60338  53.1575 275.3249 0001264  90.5818  81.8347 15.34365082    13

Verfolge STARLINK-32078 in Echtzeit mit AllMySat

Download on the App Store